Year,Month,Day,Hour,Minute,Value (Times are PST for windgust in km/hr)
2016,07,06,00,00,1.60
2016,07,06,00,02,1.60
2016,07,06,00,03,1.60
2016,07,06,00,11,1.60
2016,07,06,00,12,1.60
2016,07,06,00,13,1.60
2016,07,06,00,14,1.60
2016,07,06,00,15,1.60
2016,07,06,00,16,1.60
2016,07,06,00,17,1.60
2016,07,06,00,18,1.60
2016,07,06,00,19,1.60
2016,07,06,00,20,1.60
2016,07,06,00,21,1.60
2016,07,06,00,22,1.60
2016,07,06,00,23,1.60
2016,07,06,00,24,1.60
2016,07,06,00,25,1.60
2016,07,06,00,26,1.60
2016,07,06,00,27,3.20
2016,07,06,00,28,1.60
2016,07,06,00,29,1.60
2016,07,06,00,30,3.20
2016,07,06,00,31,1.60
2016,07,06,00,32,3.20
2016,07,06,00,33,3.20
2016,07,06,00,34,3.20
2016,07,06,00,35,3.20
2016,07,06,00,36,3.20
2016,07,06,00,37,6.40
2016,07,06,00,38,1.60
2016,07,06,00,39,1.60
2016,07,06,00,40,1.60
2016,07,06,00,41,1.60
2016,07,06,00,42,1.60
2016,07,06,00,43,1.60
2016,07,06,00,44,1.60
2016,07,06,00,45,1.60
2016,07,06,00,46,3.20
2016,07,06,00,47,3.20
2016,07,06,00,48,1.60
2016,07,06,00,49,1.60
2016,07,06,00,50,1.60
2016,07,06,00,51,1.60
2016,07,06,00,52,1.60
2016,07,06,00,53,1.60
2016,07,06,00,54,1.60
2016,07,06,00,55,1.60
2016,07,06,00,56,1.60
2016,07,06,00,57,1.60
2016,07,06,00,58,1.60
2016,07,06,00,59,1.60
2016,07,06,01,00,1.60
2016,07,06,01,01,4.80
2016,07,06,01,02,3.20
2016,07,06,01,03,1.60
2016,07,06,01,04,1.60
2016,07,06,01,05,1.60
2016,07,06,01,06,1.60
2016,07,06,01,07,1.60
2016,07,06,01,08,1.60
2016,07,06,01,09,1.60
2016,07,06,01,10,1.60
2016,07,06,01,11,1.60
2016,07,06,01,12,1.60
2016,07,06,01,13,3.20
2016,07,06,01,14,4.80
2016,07,06,01,15,4.80
2016,07,06,01,16,3.20
2016,07,06,01,17,1.60
2016,07,06,01,18,1.60
2016,07,06,01,19,1.60
2016,07,06,01,20,1.60
2016,07,06,01,21,1.60
2016,07,06,01,22,1.60
2016,07,06,01,23,1.60
2016,07,06,01,24,4.80
2016,07,06,01,25,1.60
2016,07,06,01,26,3.20
2016,07,06,01,27,3.20
2016,07,06,01,59,1.60
2016,07,06,02,00,1.60
2016,07,06,02,01,1.60
2016,07,06,02,02,1.60
2016,07,06,02,44,1.60
2016,07,06,02,45,1.60
2016,07,06,02,46,1.60
2016,07,06,02,47,1.60
2016,07,06,02,48,1.60
2016,07,06,02,49,1.60
2016,07,06,02,50,1.60
2016,07,06,02,59,1.60
2016,07,06,03,00,1.60
2016,07,06,03,01,3.20
2016,07,06,03,02,1.60
2016,07,06,03,03,1.60
2016,07,06,03,04,1.60
2016,07,06,03,05,1.60
2016,07,06,03,06,1.60
2016,07,06,03,07,1.60
2016,07,06,03,14,1.60
2016,07,06,03,15,4.80
2016,07,06,03,16,1.60
2016,07,06,03,17,1.60
2016,07,06,03,18,4.80
2016,07,06,03,19,6.40
2016,07,06,03,20,6.40
2016,07,06,03,21,6.40
2016,07,06,03,22,3.20
2016,07,06,03,23,4.80
2016,07,06,03,24,4.80
2016,07,06,03,25,4.80
2016,07,06,03,26,4.80
2016,07,06,03,27,3.20
2016,07,06,03,28,1.60
2016,07,06,03,29,1.60
2016,07,06,03,30,1.60
2016,07,06,03,31,1.60
2016,07,06,03,32,1.60
2016,07,06,03,34,1.60
2016,07,06,03,35,1.60
2016,07,06,03,36,1.60
2016,07,06,03,37,1.60
2016,07,06,03,38,1.60
2016,07,06,03,39,1.60
2016,07,06,03,43,1.60
2016,07,06,03,44,1.60
2016,07,06,03,45,1.60
2016,07,06,03,46,1.60
2016,07,06,03,47,3.20
2016,07,06,03,48,1.60
2016,07,06,03,49,1.60
2016,07,06,03,50,1.60
2016,07,06,03,51,6.40
2016,07,06,03,52,6.40
2016,07,06,03,53,6.40
2016,07,06,03,54,6.40
2016,07,06,03,55,6.40
2016,07,06,03,56,6.40
2016,07,06,03,57,6.40
2016,07,06,03,58,6.40
2016,07,06,03,59,3.20
2016,07,06,04,00,4.80
2016,07,06,04,01,4.80
2016,07,06,04,02,6.40
2016,07,06,04,03,6.40
2016,07,06,04,04,4.80
2016,07,06,04,05,6.40
2016,07,06,04,06,6.40
2016,07,06,04,07,6.40
2016,07,06,04,08,6.40
2016,07,06,04,09,4.80
2016,07,06,04,10,3.20
2016,07,06,04,11,4.80
2016,07,06,04,12,4.80
2016,07,06,04,13,4.80
2016,07,06,04,14,4.80
2016,07,06,04,15,4.80
2016,07,06,04,16,6.40
2016,07,06,04,17,4.80
2016,07,06,04,18,4.80
2016,07,06,04,19,3.20
2016,07,06,04,20,1.60
2016,07,06,04,21,3.20
2016,07,06,04,22,3.20
2016,07,06,04,23,1.60
2016,07,06,04,24,1.60
2016,07,06,04,25,1.60
2016,07,06,04,26,1.60
2016,07,06,04,27,1.60
2016,07,06,04,28,1.60
2016,07,06,04,29,3.20
2016,07,06,04,30,3.20
2016,07,06,04,31,3.20
2016,07,06,04,32,1.60
2016,07,06,04,33,1.60
2016,07,06,04,34,3.20
2016,07,06,04,35,3.20
2016,07,06,04,36,3.20
2016,07,06,04,37,3.20
2016,07,06,04,38,3.20
2016,07,06,04,39,3.20
2016,07,06,04,40,1.60
2016,07,06,04,41,1.60
2016,07,06,04,42,1.60
2016,07,06,04,43,1.60
2016,07,06,04,44,1.60
2016,07,06,04,45,1.60
2016,07,06,04,46,1.60
2016,07,06,04,47,1.60
2016,07,06,04,48,3.20
2016,07,06,04,49,1.60
2016,07,06,04,50,3.20
2016,07,06,04,51,3.20
2016,07,06,04,52,1.60
2016,07,06,04,53,1.60
2016,07,06,04,54,1.60
2016,07,06,04,55,1.60
2016,07,06,04,56,1.60
2016,07,06,04,57,1.60
2016,07,06,04,58,1.60
2016,07,06,04,59,1.60
2016,07,06,05,00,1.60
2016,07,06,05,01,1.60
2016,07,06,05,02,1.60
2016,07,06,05,03,1.60
2016,07,06,05,04,1.60
2016,07,06,05,05,1.60
2016,07,06,05,06,3.20
2016,07,06,05,07,1.60
2016,07,06,05,08,4.80
2016,07,06,05,09,4.80
2016,07,06,05,10,3.20
2016,07,06,05,11,1.60
2016,07,06,05,12,3.20
2016,07,06,05,13,3.20
2016,07,06,05,14,1.60
2016,07,06,05,15,1.60
2016,07,06,05,16,1.60
2016,07,06,05,17,1.60
2016,07,06,05,18,1.60
2016,07,06,05,19,1.60
2016,07,06,05,20,1.60
2016,07,06,05,21,1.60
2016,07,06,05,22,1.60
2016,07,06,05,23,1.60
2016,07,06,05,24,1.60
2016,07,06,05,25,1.60
2016,07,06,05,26,1.60
2016,07,06,05,27,1.60
2016,07,06,05,28,1.60
2016,07,06,05,29,1.60
2016,07,06,05,43,1.60
2016,07,06,05,44,1.60
2016,07,06,05,45,1.60
2016,07,06,05,46,1.60
2016,07,06,05,47,1.60
2016,07,06,05,48,1.60
2016,07,06,05,49,1.60
2016,07,06,05,50,1.60
2016,07,06,05,51,1.60
2016,07,06,05,52,1.60
2016,07,06,05,53,1.60
2016,07,06,05,54,1.60
2016,07,06,05,55,1.60
2016,07,06,05,56,1.60
2016,07,06,05,57,1.60
2016,07,06,05,58,1.60
2016,07,06,05,59,1.60
2016,07,06,06,12,1.60
2016,07,06,06,13,1.60
2016,07,06,06,14,1.60
2016,07,06,06,15,1.60
2016,07,06,06,16,1.60
2016,07,06,06,17,1.60
2016,07,06,06,18,1.60
2016,07,06,06,19,1.60
2016,07,06,06,20,1.60
2016,07,06,06,21,1.60
2016,07,06,06,22,1.60
2016,07,06,06,23,1.60
2016,07,06,06,24,1.60
2016,07,06,06,25,1.60
2016,07,06,06,26,1.60
2016,07,06,06,27,1.60
2016,07,06,06,56,1.60
2016,07,06,06,57,1.60
2016,07,06,06,58,1.60
2016,07,06,06,59,1.60
2016,07,06,07,00,1.60
2016,07,06,07,01,1.60
2016,07,06,07,02,1.60
2016,07,06,07,03,1.60
2016,07,06,07,04,1.60
2016,07,06,07,08,1.60
2016,07,06,07,11,1.60
2016,07,06,07,12,1.60
2016,07,06,07,13,1.60
2016,07,06,07,14,1.60
2016,07,06,07,15,1.60
2016,07,06,07,16,1.60
2016,07,06,07,17,1.60
2016,07,06,07,19,1.60
2016,07,06,07,20,1.60
2016,07,06,07,21,1.60
2016,07,06,07,22,1.60
2016,07,06,07,23,1.60
2016,07,06,07,24,1.60
2016,07,06,07,25,3.20
2016,07,06,07,26,4.80
2016,07,06,07,27,3.20
2016,07,06,07,28,4.80
2016,07,06,07,29,3.20
2016,07,06,07,30,4.80
2016,07,06,07,31,4.80
2016,07,06,07,32,3.20
2016,07,06,07,33,8.10
2016,07,06,07,34,8.10
2016,07,06,07,35,3.20
2016,07,06,07,36,6.40
2016,07,06,07,37,6.40
2016,07,06,07,38,8.10
2016,07,06,07,39,4.80
2016,07,06,07,40,6.40
2016,07,06,07,41,6.40
2016,07,06,07,42,6.40
2016,07,06,07,43,4.80
2016,07,06,07,44,4.80
2016,07,06,07,45,4.80
2016,07,06,07,46,6.40
2016,07,06,07,47,6.40
2016,07,06,07,48,8.10
2016,07,06,07,49,4.80
2016,07,06,07,50,1.60
2016,07,06,07,51,1.60
2016,07,06,07,52,3.20
2016,07,06,07,53,3.20
2016,07,06,07,54,8.10
2016,07,06,07,55,6.40
2016,07,06,07,56,4.80
2016,07,06,07,57,4.80
2016,07,06,07,58,4.80
2016,07,06,07,59,4.80
2016,07,06,08,00,4.80
2016,07,06,08,01,4.80
2016,07,06,08,02,4.80
2016,07,06,08,03,4.80
2016,07,06,08,04,4.80
2016,07,06,08,05,4.80
2016,07,06,08,06,4.80
2016,07,06,12,37,19.30
2016,07,06,12,38,19.30
2016,07,06,12,39,12.90
2016,07,06,12,40,16.10
2016,07,06,12,41,16.10
2016,07,06,12,42,12.90
2016,07,06,12,43,17.70
2016,07,06,12,44,9.60
2016,07,06,12,45,17.70
2016,07,06,12,46,19.30
2016,07,06,12,47,17.70
2016,07,06,12,48,19.30
2016,07,06,12,49,19.30
2016,07,06,12,50,11.30
2016,07,06,12,51,11.30
2016,07,06,12,52,11.30
2016,07,06,12,53,16.10
2016,07,06,12,54,16.10
2016,07,06,12,55,16.10
2016,07,06,12,56,22.50
2016,07,06,12,57,20.90
2016,07,06,12,58,20.90
2016,07,06,12,59,17.70
2016,07,06,13,00,17.70
2016,07,06,13,01,17.70
2016,07,06,13,02,22.50
2016,07,06,13,03,22.50
2016,07,06,13,04,24.20
2016,07,06,13,05,22.50
2016,07,06,13,06,24.20
2016,07,06,13,07,20.90
2016,07,06,13,08,24.20
2016,07,06,13,09,19.30
2016,07,06,13,10,19.30
2016,07,06,13,11,19.30
2016,07,06,13,12,19.30
2016,07,06,13,13,17.70
2016,07,06,13,14,17.70
2016,07,06,13,15,17.70
2016,07,06,13,16,14.50
2016,07,06,13,17,14.50
2016,07,06,13,18,14.50
2016,07,06,13,19,14.50
2016,07,06,13,20,16.10
2016,07,06,13,21,12.90
2016,07,06,13,22,20.90
2016,07,06,13,23,22.50
2016,07,06,13,24,22.50
2016,07,06,13,25,17.70
2016,07,06,13,26,19.30
2016,07,06,13,27,16.10
2016,07,06,13,28,17.70
2016,07,06,13,29,11.30
2016,07,06,13,30,17.70
2016,07,06,13,31,14.50
2016,07,06,13,32,16.10
2016,07,06,13,33,16.10
2016,07,06,13,34,19.30
2016,07,06,13,35,22.50
2016,07,06,13,36,20.90
2016,07,06,13,37,17.70
2016,07,06,13,38,22.50
2016,07,06,13,39,17.70
2016,07,06,13,40,19.30
2016,07,06,13,41,22.50
2016,07,06,13,42,25.70
2016,07,06,13,43,20.90
2016,07,06,13,44,20.90
2016,07,06,13,45,22.50
2016,07,06,13,46,24.20
2016,07,06,13,47,24.20
2016,07,06,13,48,20.90
2016,07,06,13,49,20.90
2016,07,06,13,50,20.90
2016,07,06,13,51,20.90
2016,07,06,13,52,19.30
2016,07,06,13,53,17.70
2016,07,06,13,54,17.70
2016,07,06,13,55,24.20
2016,07,06,13,56,19.30
2016,07,06,13,57,17.70
2016,07,06,13,58,20.90
2016,07,06,13,59,19.30
2016,07,06,14,00,14.50
2016,07,06,14,01,16.10
2016,07,06,14,02,17.70
2016,07,06,14,03,16.10
2016,07,06,14,04,16.10
2016,07,06,14,05,19.30
2016,07,06,14,06,17.70
2016,07,06,14,07,14.50
2016,07,06,14,08,17.70
2016,07,06,14,09,17.70
2016,07,06,14,10,20.90
2016,07,06,14,11,17.70
2016,07,06,14,12,14.50
2016,07,06,14,13,12.90
2016,07,06,14,14,19.30
2016,07,06,14,15,17.70
2016,07,06,14,16,16.10
2016,07,06,14,17,19.30
2016,07,06,14,18,24.20
2016,07,06,14,19,17.70
2016,07,06,14,20,17.70
2016,07,06,14,21,17.70
2016,07,06,14,22,11.30
2016,07,06,14,23,17.70
2016,07,06,14,24,19.30
2016,07,06,14,25,19.30
2016,07,06,14,26,11.30
2016,07,06,14,27,11.30
2016,07,06,14,28,14.50
2016,07,06,14,29,11.30
2016,07,06,14,30,9.60
2016,07,06,14,31,19.30
2016,07,06,14,32,19.30
2016,07,06,14,33,11.30
2016,07,06,14,34,17.70
2016,07,06,14,35,11.30
2016,07,06,14,36,17.70
2016,07,06,14,37,4.80
2016,07,06,14,38,19.30
2016,07,06,14,39,11.30
2016,07,06,14,40,8.10
2016,07,06,14,41,8.10
2016,07,06,14,42,9.60
2016,07,06,14,43,9.60
2016,07,06,14,44,16.10
2016,07,06,14,45,11.30
2016,07,06,14,46,16.10
2016,07,06,14,47,16.10
2016,07,06,14,48,16.10
2016,07,06,14,49,11.30
2016,07,06,14,50,8.10
2016,07,06,14,51,14.50
2016,07,06,14,52,12.90
2016,07,06,14,53,6.40
2016,07,06,14,54,11.30
2016,07,06,14,55,9.60
2016,07,06,14,56,11.30
2016,07,06,14,57,6.40
2016,07,06,14,58,9.60
2016,07,06,14,59,8.10
2016,07,06,15,00,12.90
2016,07,06,15,01,11.30
2016,07,06,15,02,11.30
2016,07,06,15,03,4.80
2016,07,06,15,04,3.20
2016,07,06,15,05,8.10
2016,07,06,15,06,11.30
2016,07,06,15,07,9.60
2016,07,06,15,08,4.80
2016,07,06,15,09,4.80
2016,07,06,15,10,11.30
2016,07,06,15,11,8.10
2016,07,06,15,12,9.60
2016,07,06,15,13,9.60
2016,07,06,15,14,14.50
2016,07,06,15,15,11.30
2016,07,06,15,16,9.60
2016,07,06,15,17,9.60
2016,07,06,15,18,11.30
2016,07,06,15,19,11.30
2016,07,06,15,20,9.60
2016,07,06,15,21,9.60
2016,07,06,15,22,8.10
2016,07,06,15,23,6.40
2016,07,06,15,24,6.40
2016,07,06,15,25,9.60
2016,07,06,15,26,8.10
2016,07,06,15,27,8.10
2016,07,06,15,28,8.10
2016,07,06,15,29,6.40
2016,07,06,15,30,9.60
2016,07,06,15,31,9.60
2016,07,06,15,32,8.10
2016,07,06,15,33,9.60
2016,07,06,15,34,9.60
2016,07,06,15,35,11.30
2016,07,06,15,36,9.60
2016,07,06,15,37,11.30
2016,07,06,15,38,6.40
2016,07,06,15,39,6.40
2016,07,06,15,40,4.80
2016,07,06,15,41,4.80
2016,07,06,15,42,6.40
2016,07,06,15,43,9.60
2016,07,06,15,44,11.30
2016,07,06,15,45,9.60
2016,07,06,15,46,8.10
2016,07,06,15,47,3.20
2016,07,06,15,48,3.20
2016,07,06,15,49,3.20
2016,07,06,15,50,3.20
2016,07,06,15,51,8.10
2016,07,06,15,52,6.40
2016,07,06,15,53,6.40
2016,07,06,15,54,6.40
2016,07,06,15,55,4.80
2016,07,06,15,56,4.80
2016,07,06,15,57,4.80
2016,07,06,15,58,4.80
2016,07,06,15,59,4.80
2016,07,06,16,00,3.20
2016,07,06,16,01,6.40
2016,07,06,16,02,4.80
2016,07,06,16,03,11.30
2016,07,06,16,04,8.10
2016,07,06,16,05,6.40
2016,07,06,16,06,3.20
2016,07,06,16,07,8.10
2016,07,06,16,08,6.40
2016,07,06,16,09,4.80
2016,07,06,16,10,3.20
2016,07,06,16,11,6.40
2016,07,06,16,12,4.80
2016,07,06,16,13,9.60
2016,07,06,16,14,3.20
2016,07,06,16,15,3.20
2016,07,06,16,16,8.10
2016,07,06,16,17,4.80
2016,07,06,16,18,3.20
2016,07,06,16,19,6.40
2016,07,06,16,20,9.60
2016,07,06,16,21,8.10
2016,07,06,16,22,3.20
2016,07,06,16,23,4.80
2016,07,06,16,24,3.20
2016,07,06,16,25,8.10
2016,07,06,16,26,8.10
2016,07,06,16,27,8.10
2016,07,06,16,28,8.10
2016,07,06,16,29,3.20
2016,07,06,16,30,8.10
2016,07,06,16,31,8.10
2016,07,06,16,32,4.80
2016,07,06,16,33,6.40
2016,07,06,16,34,4.80
2016,07,06,16,35,6.40
2016,07,06,16,36,8.10
2016,07,06,16,37,9.60
2016,07,06,16,38,9.60
2016,07,06,16,39,3.20
2016,07,06,16,40,4.80
2016,07,06,16,41,4.80
2016,07,06,16,42,6.40
2016,07,06,16,43,6.40
2016,07,06,16,44,4.80
2016,07,06,16,45,3.20
2016,07,06,16,46,3.20
2016,07,06,16,47,3.20
2016,07,06,16,48,1.60
2016,07,06,16,49,3.20
2016,07,06,16,50,6.40
2016,07,06,16,51,4.80
2016,07,06,16,52,3.20
2016,07,06,16,53,6.40
2016,07,06,16,54,4.80
2016,07,06,16,55,4.80
2016,07,06,16,56,6.40
2016,07,06,16,57,4.80
2016,07,06,16,58,3.20
2016,07,06,16,59,3.20
2016,07,06,17,00,1.60
2016,07,06,17,01,3.20
2016,07,06,17,02,3.20
2016,07,06,17,03,3.20
2016,07,06,17,04,1.60
2016,07,06,17,05,3.20
2016,07,06,17,06,4.80
2016,07,06,17,07,6.40
2016,07,06,17,08,4.80
2016,07,06,17,09,4.80
2016,07,06,17,10,4.80
2016,07,06,17,11,6.40
2016,07,06,17,12,6.40
2016,07,06,17,13,3.20
2016,07,06,17,14,3.20
2016,07,06,17,15,4.80
2016,07,06,17,16,8.10
2016,07,06,17,17,11.30
2016,07,06,17,18,11.30
2016,07,06,17,19,6.40
2016,07,06,17,20,4.80
2016,07,06,17,21,4.80
2016,07,06,17,22,4.80
2016,07,06,17,23,9.60
2016,07,06,17,24,9.60
2016,07,06,17,25,8.10
2016,07,06,17,26,8.10
2016,07,06,17,27,6.40
2016,07,06,17,28,4.80
2016,07,06,17,29,4.80
2016,07,06,17,30,9.60
2016,07,06,17,31,9.60
2016,07,06,17,32,8.10
2016,07,06,17,33,9.60
2016,07,06,17,34,9.60
2016,07,06,17,35,6.40
2016,07,06,17,36,11.30
2016,07,06,17,37,8.10
2016,07,06,17,38,8.10
2016,07,06,17,39,4.80
2016,07,06,17,40,4.80
2016,07,06,17,41,6.40
2016,07,06,17,42,9.60
2016,07,06,17,43,6.40
2016,07,06,17,44,3.20
2016,07,06,17,45,6.40
2016,07,06,17,46,9.60
2016,07,06,17,47,9.60
2016,07,06,17,48,8.10
2016,07,06,17,49,11.30
2016,07,06,17,50,14.50
2016,07,06,17,51,12.90
2016,07,06,17,52,11.30
2016,07,06,17,53,11.30
2016,07,06,17,54,11.30
2016,07,06,17,55,11.30
2016,07,06,17,56,11.30
2016,07,06,17,57,12.90
2016,07,06,17,58,14.50
2016,07,06,17,59,14.50
2016,07,06,18,00,9.60
2016,07,06,18,01,8.10
2016,07,06,18,02,6.40
2016,07,06,18,03,11.30
2016,07,06,18,04,6.40
2016,07,06,18,05,11.30
2016,07,06,18,06,9.60
2016,07,06,18,07,11.30
2016,07,06,18,08,11.30
2016,07,06,18,09,11.30
2016,07,06,18,10,9.60
2016,07,06,18,11,9.60
2016,07,06,18,12,14.50
2016,07,06,18,13,9.60
2016,07,06,18,14,11.30
2016,07,06,18,15,4.80
2016,07,06,18,16,4.80
2016,07,06,18,17,3.20
2016,07,06,18,18,4.80
2016,07,06,18,19,4.80
2016,07,06,18,20,4.80
2016,07,06,18,21,8.10
2016,07,06,18,22,6.40
2016,07,06,18,23,6.40
2016,07,06,18,24,6.40
2016,07,06,18,25,8.10
2016,07,06,18,26,3.20
2016,07,06,18,27,8.10
2016,07,06,18,28,8.10
2016,07,06,18,29,4.80
2016,07,06,18,30,8.10
2016,07,06,18,31,4.80
2016,07,06,18,32,6.40
2016,07,06,18,33,4.80
2016,07,06,18,34,4.80
2016,07,06,18,35,4.80
2016,07,06,18,36,8.10
2016,07,06,18,37,6.40
2016,07,06,18,38,3.20
2016,07,06,18,39,3.20
2016,07,06,18,40,8.10
2016,07,06,18,41,6.40
2016,07,06,18,42,6.40
2016,07,06,18,43,11.30
2016,07,06,18,44,8.10
2016,07,06,18,45,9.60
2016,07,06,18,46,11.30
2016,07,06,18,47,4.80
2016,07,06,18,48,6.40
2016,07,06,18,49,9.60
2016,07,06,18,50,6.40
2016,07,06,18,51,9.60
2016,07,06,18,52,6.40
2016,07,06,18,53,8.10
2016,07,06,18,54,8.10
2016,07,06,18,55,11.30
2016,07,06,18,56,11.30
2016,07,06,18,57,8.10
2016,07,06,18,58,8.10
2016,07,06,18,59,9.60
2016,07,06,19,00,11.30
2016,07,06,19,01,9.60
2016,07,06,19,02,4.80
2016,07,06,19,03,9.60
2016,07,06,19,04,9.60
2016,07,06,19,05,9.60
2016,07,06,19,06,9.60
2016,07,06,19,07,9.60
2016,07,06,19,08,9.60
2016,07,06,19,09,9.60
2016,07,06,19,10,8.10
2016,07,06,19,11,9.60
2016,07,06,19,12,12.90
2016,07,06,19,13,9.60
2016,07,06,19,14,14.50
2016,07,06,19,15,11.30
2016,07,06,19,16,11.30
2016,07,06,19,17,8.10
2016,07,06,19,18,8.10
2016,07,06,19,19,9.60
2016,07,06,19,20,6.40
2016,07,06,19,21,8.10
2016,07,06,19,22,6.40
2016,07,06,19,23,4.80
2016,07,06,19,24,3.20
2016,07,06,19,25,8.10
2016,07,06,19,26,1.60
2016,07,06,19,27,4.80
2016,07,06,19,28,4.80
2016,07,06,19,29,8.10
2016,07,06,19,30,8.10
2016,07,06,19,31,3.20
2016,07,06,19,32,3.20
2016,07,06,19,33,3.20
2016,07,06,19,34,3.20
2016,07,06,19,35,4.80
2016,07,06,19,36,1.60
2016,07,06,19,37,1.60
2016,07,06,19,38,1.60
2016,07,06,19,39,6.40
2016,07,06,19,40,3.20
2016,07,06,19,41,6.40
2016,07,06,19,42,6.40
2016,07,06,19,43,3.20
2016,07,06,19,44,3.20
2016,07,06,19,45,4.80
2016,07,06,19,46,3.20
2016,07,06,19,47,4.80
2016,07,06,19,48,4.80
2016,07,06,19,49,6.40
2016,07,06,19,50,4.80
2016,07,06,19,51,3.20
2016,07,06,19,52,1.60
2016,07,06,19,53,3.20
2016,07,06,19,54,1.60
2016,07,06,19,55,1.60
2016,07,06,19,56,1.60
2016,07,06,19,57,1.60
2016,07,06,19,58,1.60
2016,07,06,19,59,3.20
2016,07,06,20,00,1.60
2016,07,06,20,01,1.60
2016,07,06,20,02,1.60
2016,07,06,20,03,1.60
2016,07,06,20,04,1.60
2016,07,06,20,05,1.60
2016,07,06,20,06,1.60
2016,07,06,20,07,1.60
2016,07,06,20,08,1.60
2016,07,06,20,09,1.60
2016,07,06,20,10,1.60
2016,07,06,20,11,1.60
2016,07,06,20,12,1.60
2016,07,06,20,13,1.60
2016,07,06,20,14,1.60
2016,07,06,20,15,1.60
2016,07,06,20,16,1.60
2016,07,06,20,17,1.60
2016,07,06,20,18,1.60
2016,07,06,20,19,1.60
2016,07,06,20,20,1.60
2016,07,06,20,21,1.60
2016,07,06,20,22,1.60
2016,07,06,20,23,1.60
2016,07,06,20,24,1.60
2016,07,06,20,25,1.60
2016,07,06,20,26,1.60
2016,07,06,20,27,1.60
2016,07,06,20,28,1.60
2016,07,06,20,29,1.60
2016,07,06,20,30,1.60
2016,07,06,20,32,1.60
2016,07,06,20,33,1.60
2016,07,06,20,34,1.60
2016,07,06,20,35,1.60
2016,07,06,20,36,1.60
2016,07,06,20,37,1.60
2016,07,06,20,38,1.60
2016,07,06,20,39,1.60
2016,07,06,20,40,1.60
2016,07,06,20,41,1.60
2016,07,06,20,42,1.60
2016,07,06,20,43,1.60
2016,07,06,20,44,1.60
2016,07,06,20,45,1.60
2016,07,06,20,46,1.60
2016,07,06,20,47,1.60
2016,07,06,20,48,1.60
2016,07,06,20,49,1.60
2016,07,06,20,50,1.60
2016,07,06,20,51,1.60
2016,07,06,20,52,1.60
2016,07,06,20,53,1.60
2016,07,06,20,54,1.60
2016,07,06,20,55,1.60
2016,07,06,20,56,1.60
2016,07,06,20,57,1.60
2016,07,06,20,58,1.60
2016,07,06,20,59,1.60
2016,07,06,21,00,1.60
2016,07,06,21,01,1.60
2016,07,06,21,02,1.60
2016,07,06,21,03,1.60
2016,07,06,21,04,1.60
2016,07,06,21,05,1.60
2016,07,06,21,06,1.60
2016,07,06,21,07,1.60
2016,07,06,21,08,1.60
2016,07,06,21,09,1.60
2016,07,06,21,10,1.60
2016,07,06,21,11,1.60
2016,07,06,21,12,1.60
2016,07,06,21,13,1.60
2016,07,06,21,14,1.60
2016,07,06,21,15,1.60
2016,07,06,21,17,1.60
2016,07,06,21,18,1.60
2016,07,06,21,19,1.60
2016,07,06,21,20,1.60
2016,07,06,21,21,1.60
2016,07,06,21,22,1.60
2016,07,06,21,23,1.60
2016,07,06,21,24,1.60
2016,07,06,21,25,1.60
2016,07,06,21,26,1.60
2016,07,06,21,27,1.60
2016,07,06,21,28,1.60
2016,07,06,21,29,3.20
2016,07,06,21,30,1.60
2016,07,06,21,31,1.60
2016,07,06,21,32,1.60
2016,07,06,21,33,1.60
2016,07,06,21,34,1.60
2016,07,06,21,35,1.60
2016,07,06,21,36,1.60
2016,07,06,21,37,1.60
2016,07,06,21,38,1.60
2016,07,06,21,39,1.60
2016,07,06,21,40,1.60
2016,07,06,21,41,1.60
2016,07,06,21,42,1.60
2016,07,06,21,43,1.60
2016,07,06,21,44,1.60
2016,07,06,21,45,1.60
2016,07,06,21,46,1.60
2016,07,06,21,47,1.60
2016,07,06,21,48,1.60
2016,07,06,21,49,1.60
2016,07,06,21,50,1.60
2016,07,06,21,51,1.60
2016,07,06,21,52,1.60
2016,07,06,21,53,1.60
2016,07,06,21,54,1.60
2016,07,06,21,55,1.60
2016,07,06,21,56,1.60
2016,07,06,21,57,1.60
2016,07,06,21,58,1.60
2016,07,06,21,59,1.60
2016,07,06,22,00,1.60
2016,07,06,22,01,1.60
2016,07,06,22,02,1.60
2016,07,06,22,03,1.60
2016,07,06,22,04,1.60
2016,07,06,22,05,1.60
2016,07,06,22,06,1.60
2016,07,06,22,07,1.60
2016,07,06,22,08,1.60
2016,07,06,22,09,1.60
2016,07,06,22,10,1.60
2016,07,06,22,11,1.60
2016,07,06,22,12,1.60
2016,07,06,22,13,1.60
2016,07,06,22,14,1.60
2016,07,06,22,15,1.60
2016,07,06,22,16,1.60
2016,07,06,22,17,1.60
2016,07,06,22,18,1.60
2016,07,06,22,19,1.60
2016,07,06,22,20,1.60
2016,07,06,22,21,1.60
2016,07,06,22,22,1.60
2016,07,06,22,23,1.60
2016,07,06,22,24,1.60
2016,07,06,22,25,1.60
2016,07,06,22,26,1.60
2016,07,06,22,27,1.60
2016,07,06,22,28,1.60
2016,07,06,22,29,1.60
2016,07,06,22,30,1.60
2016,07,06,22,31,1.60
2016,07,06,22,32,1.60
2016,07,06,22,33,1.60
2016,07,06,22,34,1.60
2016,07,06,22,35,1.60
2016,07,06,22,36,1.60
2016,07,06,22,37,1.60
2016,07,06,22,43,1.60
2016,07,06,22,46,1.60
2016,07,06,22,47,1.60
2016,07,06,22,49,1.60
2016,07,06,22,50,1.60
2016,07,06,22,51,1.60
2016,07,06,22,52,1.60
2016,07,06,22,53,1.60
2016,07,06,22,54,1.60
2016,07,06,22,55,1.60
2016,07,06,22,56,1.60
2016,07,06,22,57,1.60
2016,07,06,22,58,1.60
2016,07,06,22,59,1.60
2016,07,06,23,00,1.60
2016,07,06,23,01,1.60
2016,07,06,23,03,1.60
2016,07,06,23,04,1.60
2016,07,06,23,05,1.60
2016,07,06,23,13,1.60
2016,07,06,23,25,1.60
2016,07,06,23,26,1.60
2016,07,06,23,27,1.60
2016,07,06,23,28,3.20
2016,07,06,23,29,1.60
2016,07,06,23,30,1.60
2016,07,06,23,31,1.60
2016,07,06,23,32,1.60
2016,07,06,23,33,3.20
2016,07,06,23,34,3.20
2016,07,06,23,35,1.60
2016,07,06,23,36,1.60
2016,07,06,23,37,1.60
2016,07,06,23,38,1.60
2016,07,06,23,39,1.60
2016,07,06,23,40,1.60
2016,07,06,23,41,1.60
2016,07,06,23,42,1.60
2016,07,06,23,43,1.60
2016,07,06,23,44,1.60
2016,07,06,23,45,1.60
2016,07,06,23,46,1.60
2016,07,06,23,47,1.60
2016,07,06,23,48,1.60
2016,07,06,23,49,1.60
2016,07,06,23,50,1.60
2016,07,06,23,51,1.60
2016,07,06,23,52,1.60
2016,07,06,23,56,1.60
2016,07,06,23,57,1.60
2016,07,06,23,58,1.60
2016,07,06,23,59,1.60
